FW8813 Weather Reports


time (UTC)temp
C
wind
direction
speed
KPH
gust
KPH
rain 1hr
cm
rain 24hr
cm
rain mn
cm
humidity
%
barometer
mb
20260503033048 5 0 0.0 0.0 0.00 0.00 0.00 74 1015.4
20260503032536 5 0 0.0 0.0 0.00 0.00 0.00 73 1015.4
20260503032034 5 0 0.0 1.6 0.00 0.00 0.00 72 1015.6
20260503031556 5 0 0.0 1.6 0.00 0.00 0.00 72 1015.5
20260503031034 5 290 0.0 0.0 0.00 0.00 0.00 74 1015.6
20260503030533 6 0 0.0 0.0 0.00 0.00 0.00 72 1015.5
20260503030056 6 0 0.0 0.0 0.00 0.00 0.00 70 1015.4
20260503025534 6 0 0.0 0.0 0.00 0.00 0.00 68 1015.4
20260503025035 6 0 0.0 0.0 0.00 0.00 0.00 69 1015.4
20260503024547 7 0 0.0 0.0 0.00 0.00 0.00 67 1015.4
20260503024035 7 0 0.0 1.6 0.00 0.00 0.00 62 1015.4
20260503023534 7 0 0.0 1.6 0.00 0.00 0.00 62 1015.1
20260503023057 8 0 0.0 0.0 0.00 0.00 0.00 60 1015.1
20260503022534 8 32 0.0 4.8 0.00 0.00 0.00 56 1015.1
20260503022043 9 0 0.0 4.8 0.00 0.00 0.00 55 1015.1
20260503021555 9 0 1.6 4.8 0.00 0.00 0.00 55 1015.3
20260503021034 9 333 1.6 6.4 0.00 0.00 0.00 54 1015.1
20260503020534 9 344 1.6 6.4 0.00 0.00 0.00 54 1015.1
20260503020042 10 13 1.6 6.4 0.00 0.00 0.00 54 1015.1
20260503015533 10 6 1.6 11.3 0.00 0.00 0.00 53 1014.9
20260503015036 10 346 4.8 11.3 0.00 0.00 0.00 53 1014.9
20260503014546 10 347 4.8 11.3 0.00 0.00 0.00 52 1014.9
20260503014033 10 6 4.8 14.5 0.00 0.00 0.00 52 1014.9
20260503013534 10 333 8.0 14.5 0.00 0.00 0.00 51 1014.8
20260503013054 10 23 3.2 12.9 0.00 0.00 0.00 51 1014.6
20260503012536 10 337 4.8 20.9 0.00 0.00 0.00 50 1014.7
20260503012035 10 355 8.0 20.9 0.00 0.00 0.00 50 1014.7
20260503011556 11 323 6.4 16.1 0.00 0.00 0.00 49 1014.5
20260503011036 11 339 6.4 16.1 0.00 0.00 0.00 47 1014.3
20260503010534 11 290 6.4 16.1 0.00 0.00 0.00 47 1014.2
20260503010114 11 306 6.4 14.5 0.00 0.00 0.00 48 1014.1
20260503005534 11 316 8.0 14.5 0.00 0.00 0.00 47 1014.0
20260503005034 11 288 3.2 17.7 0.00 0.00 0.00 47 1014.1
20260503004607 11 91 6.4 17.7 0.00 0.00 0.00 47 1014.1
20260503004033 11 23 3.2 14.5 0.00 0.00 0.00 47 1014.1
20260503003533 11 295 6.4 14.5 0.00 0.00 0.00 47 1014.0
20260503003041 11 283 6.4 12.9 0.00 0.00 0.00 48 1013.9
20260503002537 11 293 1.6 8.0 0.00 0.00 0.00 52 1013.8
20260503002034 11 285 1.6 6.4 0.00 0.00 0.00 53 1013.7
20260503001541 11 0 0.0 6.4 0.00 0.00 0.00 51 1013.6
20260503001042 11 0 0.0 3.2 0.00 0.00 0.00 50 1013.5
20260503000533 12 0 0.0 1.6 0.00 0.00 0.00 48 1013.4
20260503000050 12 285 0.0 11.3 0.00 0.00 0.00 48 1013.3
20260502235533 12 6 3.2 11.3 0.00 0.00 0.00 47 1013.0
20260502235033 12 297 4.8 19.3 0.00 0.00 0.00 45 1013.1
20260502234547 12 281 4.8 19.3 0.00 0.00 0.00 47 1012.9
20260502234033 12 21 4.8 17.7 0.00 0.00 0.00 46 1012.8
20260502233536 12 41 4.8 17.7 0.00 0.00 0.00 47 1012.8
20260502233045 13 6 6.4 17.7 0.00 0.00 0.00 46 1012.7
20260502232536 13 38 8.0 19.3 0.00 0.00 0.00 45 1012.7
20260502232034 13 45 8.0 19.3 0.00 0.00 0.00 46 1012.6
20260502231541 13 338 4.8 17.7 0.00 0.00 0.00 45 1012.5
20260502231035 13 33 8.0 17.7 0.00 0.00 0.00 45 1012.5
20260502230534 13 1 6.4 12.9 0.00 0.00 0.00 46 1012.5
20260502230044 13 254 3.2 12.9 0.00 0.00 0.00 46 1012.5
20260502225534 13 271 6.4 12.9 0.00 0.00 0.00 44 1012.6
20260502225033 13 342 6.4 12.9 0.00 0.00 0.00 45 1012.5
20260502224540 13 351 1.6 12.9 0.00 0.00 0.00 46 1012.4
20260502224033 13 295 4.8 14.5 0.00 0.00 0.00 43 1012.5
20260502223534 13 288 4.8 19.3 0.00 0.00 0.00 43 1012.5
20260502223048 14 339 6.4 19.3 0.00 0.00 0.00 44 1012.5
20260502222534 14 15 9.7 19.3 0.00 0.00 0.00 43 1012.3
20260502222034 14 2 4.8 29.0 0.00 0.00 0.00 43 1012.4
20260502221548 14 335 11.3 29.0 0.00 0.00 0.00 42 1012.3
20260502221033 14 316 12.9 29.0 0.00 0.00 0.00 41 1012.4
20260502220535 14 28 11.3 24.1 0.00 0.00 0.00 42 1012.3
20260502220049 14 15 11.3 24.1 0.00 0.00 0.00 43 1012.4
20260502215533 14 30 11.3 22.5 0.00 0.00 0.00 42 1012.1
20260502215034 14 299 11.3 22.5 0.00 0.00 0.00 41 1012.0
20260502214552 14 341 6.4 30.6 0.00 0.00 0.00 43 1012.0
20260502214035 15 23 11.3 30.6 0.00 0.00 0.00 43 1011.9
20260502213536 15 356 12.9 27.4 0.00 0.00 0.00 39 1011.9
20260502213047 15 352 9.7 20.9 0.00 0.00 0.00 41 1011.7
20260502212534 15 288 9.7 20.9 0.00 0.00 0.00 42 1011.7
20260502212035 15 15 6.4 22.5 0.00 0.00 0.00 40 1011.5
20260502211556 15 332 8.0 24.1 0.00 0.00 0.00 42 1011.5
20260502211034 15 1 8.0 24.1 0.00 0.00 0.00 40 1011.3
20260502210533 15 56 6.4 17.7 0.00 0.00 0.00 42 1011.4
20260502210048 15 57 9.7 17.7 0.00 0.00 0.00 42 1011.2
20260502205533 15 32 8.0 16.1 0.00 0.00 0.00 45 1011.2
20260502205033 15 323 6.4 16.1 0.00 0.00 0.00 41 1011.2
20260502204539 15 39 6.4 22.5 0.00 0.00 0.00 43 1011.2
20260502204034 15 315 8.0 22.5 0.00 0.00 0.00 44 1011.3
20260502203533 15 39 9.7 19.3 0.00 0.00 0.00 41 1011.2
20260502203056 16 356 8.0 19.3 0.00 0.00 0.00 42 1011.2
20260502202534 16 7 4.8 12.9 0.00 0.00 0.00 42 1011.2
20260502202033 16 306 6.4 12.9 0.00 0.00 0.00 40 1011.5
20260502201547 16 34 8.0 12.9 0.00 0.00 0.00 42 1011.3
20260502201035 16 32 4.8 12.9 0.00 0.00 0.00 41 1011.2
20260502200534 16 33 3.2 9.7 0.00 0.00 0.00 39 1011.5
20260502200043 16 257 6.4 12.9 0.00 0.00 0.00 41 1011.5
20260502195535 16 327 6.4 17.7 0.00 0.00 0.00 41 1011.6
20260502195033 16 21 4.8 19.3 0.00 0.00 0.00 39 1011.6
20260502194541 16 38 8.0 19.3 0.00 0.00 0.00 40 1011.7
20260502194033 16 77 4.8 14.5 0.00 0.00 0.00 40 1011.7
20260502193535 16 307 3.2 14.5 0.00 0.00 0.00 40 1011.9
20260502193041 16 82 3.2 12.9 0.00 0.00 0.00 46 1011.8
20260502192534 15 0 4.8 14.5 0.00 0.00 0.00 39 1011.9
20260502192033 15 324 6.4 14.5 0.00 0.00 0.00 39 1011.9
20260502191547 15 41 3.2 14.5 0.00 0.00 0.00 40 1011.9
20260502191033 15 0 1.6 17.7 0.00 0.00 0.00 42 1011.8
20260502190534 15 290 4.8 17.7 0.00 0.00 0.00 41 1011.8
20260502190046 15 127 1.6 12.9 0.00 0.00 0.00 41 1012.0
20260502185534 15 115 4.8 17.7 0.00 0.00 0.00 39 1012.1
20260502185034 16 28 4.8 20.9 0.00 0.00 0.00 44 1012.1
20260502184542 16 25 9.7 20.9 0.00 0.00 0.00 45 1012.1
20260502184034 16 288 9.7 20.9 0.00 0.00 0.00 42 1012.2
20260502183535 15 306 8.0 20.9 0.00 0.00 0.00 43 1012.1
20260502183042 15 47 9.7 19.3 0.00 0.00 0.00 41 1012.1
20260502182535 15 2 8.0 22.5 0.00 0.00 0.00 41 1012.3
20260502182033 15 35 9.7 22.5 0.00 0.00 0.00 41 1012.7
20260502181546 15 46 6.4 19.3 0.00 0.00 0.00 40 1012.8
20260502181037 15 359 9.7 19.3 0.00 0.00 0.00 42 1012.7
20260502180533 15 33 9.7 17.7 0.00 0.00 0.00 40 1012.7
20260502164033 12 150 3.2 12.9 0.00 0.00 0.00 52 1014.2
20260502163533 12 140 3.2 12.9 0.00 0.00 0.00 47 1014.3
20260502163107 12 349 3.2 12.9 0.00 0.00 0.00 49 1014.3
20260502162534 12 77 6.4 19.3 0.00 0.00 0.00 48 1014.4
20260502162034 12 10 4.8 19.3 0.00 0.00 0.00 49 1014.5
20260502161551 12 317 3.2 12.9 0.00 0.00 0.00 50 1014.7
20260502161035 11 336 6.4 12.9 0.00 0.00 0.00 50 1014.6
20260502160533 11 29 8.0 19.3 0.00 0.00 0.00 52 1014.7
20260502152033 10 211 1.6 9.7 0.00 0.00 0.00 55 1015.0
20260502151544 10 290 1.6 9.7 0.00 0.00 0.00 58 1015.0
20260502151033 10 4 6.4 9.7 0.00 0.00 0.00 55 1014.8
20260502150533 10 57 1.6 9.7 0.00 0.00 0.00 56 1014.9
20260502130537 10 0 4.8 12.9 0.00 0.00 0.00 54 1014.7
20260502123533 10 123 0.0 8.0 0.00 0.00 0.00 53 1014.2
20260502123047 10 96 1.6 11.3 0.00 0.00 0.00 53 1014.0
20260502122533 10 98 3.2 11.3 0.00 0.00 0.00 53 1014.0
20260502122034 10 0 0.0 3.2 0.00 0.00 0.00 52 1013.9
20260502121544 10 0 1.6 3.2 0.00 0.00 0.00 53 1014.1
20260502121034 10 0 0.0 0.0 0.00 0.00 0.00 56 1014.4
20260502120536 10 0 0.0 0.0 0.00 0.00 0.00 63 1014.2
20260502115533 10 0 0.0 3.2 0.00 0.00 0.00 60 1014.0
20260502115033 10 156 1.6 3.2 0.00 0.00 0.00 64 1014.1
20260502114603 10 147 0.0 3.2 0.00 0.00 0.00 56 1014.2
20260502114034 10 0 0.0 4.8 0.00 0.00 0.00 58 1014.0
20260502113536 10 0 0.0 9.7 0.00 0.00 0.00 57 1013.9
20260502113046 10 357 3.2 9.7 0.00 0.00 0.00 50 1013.9
20260502112535 9 109 3.2 8.0 0.00 0.00 0.00 52 1013.7
20260502112033 9 0 0.0 3.2 0.00 0.00 0.00 64 1013.7
20260502111542 10 165 1.6 6.4 0.00 0.00 0.00 72 1013.5
20260502111034 10 123 1.6 6.4 0.00 0.00 0.00 54 1013.7
20260502110536 9 91 0.0 3.2 0.00 0.00 0.00 64 1013.7
20260502110041 9 0 0.0 3.2 0.00 0.00 0.00 70 1013.7
20260502105534 10 139 0.0 3.2 0.00 0.00 0.00 69 1013.5
20260502105033 10 96 0.0 3.2 0.00 0.00 0.00 65 1013.2
20260502104541 10 95 0.0 3.2 0.00 0.00 0.00 63 1013.3
20260502104035 10 0 0.0 3.2 0.00 0.00 0.00 66 1013.4
20260502103536 10 153 1.6 4.8 0.00 0.00 0.00 66 1013.1
20260502103040 10 135 3.2 4.8 0.00 0.00 0.00 66 1013.4
20260502102533 10 0 0.0 4.8 0.00 0.00 0.00 59 1013.4
20260502102034 10 0 0.0 6.4 0.00 0.00 0.00 65 1013.3
20260502101600 10 8 1.6 8.0 0.00 0.00 0.00 57 1013.5
20260502101035 10 42 3.2 8.0 0.00 0.00 0.00 59 1013.4
20260502100533 11 288 3.2 17.7 0.00 0.00 0.00 59 1013.4
20260502100104 11 350 3.2 17.7 0.00 0.00 0.00 60 1013.4
20260502091033 10 0 0.0 4.8 0.00 0.00 0.00 73 1013.3
20260502090533 11 0 0.0 4.8 0.00 0.00 0.00 68 1013.5
20260502071034 12 359 6.4 12.9 0.00 0.00 0.00 65 1012.2
20260502070533 11 313 3.2 8.0 0.00 0.00 0.00 66 1012.5
20260502070047 11 0 0.0 9.7 0.00 0.00 0.00 68 1012.6
20260502065534 12 331 1.6 12.9 0.00 0.00 0.00 66 1012.7
20260502065034 12 303 4.8 12.9 0.00 0.00 0.00 66 1012.7
20260502064611 12 3 8.0 12.9 0.00 0.00 0.00 66 1012.7
20260502064033 12 317 4.8 12.9 0.00 0.00 0.00 67 1012.7
20260502063534 12 314 4.8 12.9 0.00 0.00 0.00 67 1012.7
20260502063052 12 337 6.4 12.9 0.00 0.00 0.00 67 1012.8
20260502062534 12 293 6.4 12.9 0.00 0.00 0.00 67 1012.9
20260502062036 12 293 4.8 12.9 0.00 0.00 0.00 67 1012.9
20260502061546 12 326 3.2 11.3 0.00 0.00 0.00 67 1013.0
20260502061033 12 290 3.2 9.7 0.00 0.00 0.00 69 1012.9
20260502060535 12 285 3.2 6.4 0.00 0.00 0.00 69 1013.1
20260502060046 12 286 1.6 8.0 0.00 0.00 0.00 70 1013.1
20260502055533 12 326 3.2 8.0 0.00 0.00 0.00 69 1013.0
20260502055032 12 311 3.2 8.0 0.00 0.00 0.00 70 1013.0
20260502054548 12 280 3.2 8.0 0.00 0.00 0.00 70 1013.1
20260502054034 12 308 1.6 4.8 0.00 0.00 0.00 70 1013.1
20260502053533 12 19 0.0 3.2 0.00 0.00 0.00 71 1013.1
20260502053049 12 0 0.0 6.4 0.00 0.00 0.00 70 1013.1
20260502052537 12 0 0.0 6.4 0.00 0.00 0.00 70 1013.1
20260502052034 12 287 4.8 6.4 0.00 0.00 0.00 71 1013.1
20260502051603 12 274 1.6 6.4 0.00 0.00 0.00 72 1013.0
20260502051033 12 287 1.6 8.0 0.00 0.00 0.00 73 1013.0
20260502050534 12 333 1.6 8.0 0.00 0.00 0.00 73 1013.1
20260502050049 12 48 3.2 8.0 0.00 0.00 0.00 75 1013.2
20260502045537 11 323 1.6 4.8 0.00 0.00 0.00 77 1013.2
20260502045035 11 320 1.6 3.2 0.00 0.00 0.00 79 1013.1
20260502044543 11 18 1.6 3.2 0.00 0.00 0.00 80 1013.2
20260502044034 11 288 0.0 1.6 0.00 0.00 0.00 81 1013.4
20260502043534 12 302 0.0 1.6 0.00 0.00 0.00 80 1013.2
20260502043117 12 0 0.0 1.6 0.00 0.00 0.00 80 1013.4
20260502042534 12 0 0.0 3.2 0.00 0.00 0.00 79 1013.2
20260502042034 12 357 1.6 3.2 0.00 0.00 0.00 79 1013.2
20260502041553 12 0 0.0 8.0 0.00 0.00 0.00 79 1013.4
20260502041038 12 0 0.0 8.0 0.00 0.00 0.00 79 1013.3
20260502040534 12 297 3.2 11.3 0.00 0.00 0.00 79 1013.3
20260502040045 12 300 6.4 11.3 0.00 0.00 0.00 79 1013.3
20260502035535 12 355 4.8 8.0 0.00 0.00 0.00 80 1013.4
20260502035035 12 299 1.6 4.8 0.00 0.00 0.00 81 1013.4
20260502034541 12 292 1.6 3.2 0.00 0.00 0.00 80 1013.4
20260502034034 12 278 1.6 3.2 0.00 0.00 0.00 80 1013.3
20260502033534 12 0 0.0 3.2 0.00 0.00 0.00 80 1013.3